TimePDT,TemperatureF,Dew PointF,Humidity,Sea Level PressureIn,VisibilityMPH,Wind Direction,Wind SpeedMPH,Gust SpeedMPH,PrecipitationIn,Events,Conditions,WindDirDegrees,DateUTC
12:15 AM,59.0,55.4,88,29.96,10.0,NNW,3.5,-,N/A,,Mostly Cloudy,340,2013-09-17 07:15:00
12:35 AM,59.0,55.4,88,29.96,10.0,Calm,Calm,-,N/A,,Mostly Cloudy,0,2013-09-17 07:35:00
12:55 AM,59.0,55.4,88,29.96,10.0,Calm,Calm,-,N/A,,Mostly Cloudy,0,2013-09-17 07:55:00
1:15 AM,59.0,55.4,88,29.96,10.0,North,3.5,-,N/A,,Overcast,360,2013-09-17 08:15:00
1:35 AM,59.0,55.4,88,29.95,10.0,Calm,Calm,-,N/A,,Overcast,0,2013-09-17 08:35:00
1:55 AM,59.0,55.4,88,29.95,10.0,Calm,Calm,-,N/A,,Overcast,0,2013-09-17 08:55:00
2:15 AM,57.2,53.6,88,29.95,10.0,NNW,3.5,-,N/A,,Overcast,330,2013-09-17 09:15:00
2:35 AM,57.2,51.8,82,29.94,10.0,Calm,Calm,-,N/A,,Mostly Cloudy,0,2013-09-17 09:35:00
2:55 AM,55.4,51.8,88,29.94,10.0,Calm,Calm,-,N/A,,Partly Cloudy,0,2013-09-17 09:55:00
3:15 AM,53.6,51.8,94,29.93,10.0,NE,3.5,-,N/A,,Clear,40,2013-09-17 10:15:00
3:35 AM,53.6,50.0,88,29.93,10.0,Calm,Calm,-,N/A,,Clear,0,2013-09-17 10:35:00
3:55 AM,53.6,51.8,94,29.93,10.0,Calm,Calm,-,N/A,,Clear,0,2013-09-17 10:55:00
4:15 AM,53.6,50.0,88,29.92,10.0,Calm,Calm,-,N/A,,Clear,0,2013-09-17 11:15:00
4:35 AM,51.8,48.2,88,29.92,10.0,Calm,Calm,-,N/A,,Clear,0,2013-09-17 11:35:00
4:55 AM,53.6,50.0,88,29.92,10.0,Calm,Calm,-,N/A,,Clear,0,2013-09-17 11:55:00
5:15 AM,51.8,48.2,88,29.93,10.0,Calm,Calm,-,N/A,,Clear,0,2013-09-17 12:15:00
5:35 AM,51.8,48.2,88,29.93,10.0,Calm,Calm,-,N/A,,Clear,0,2013-09-17 12:35:00
5:55 AM,51.8,48.2,88,29.93,10.0,Calm,Calm,-,N/A,,Partly Cloudy,0,2013-09-17 12:55:00
6:15 AM,51.8,48.2,88,29.92,10.0,Calm,Calm,-,N/A,,Scattered Clouds,0,2013-09-17 13:15:00
6:35 AM,51.8,48.2,88,29.92,10.0,Calm,Calm,-,N/A,,Mostly Cloudy,0,2013-09-17 13:35:00
6:55 AM,51.8,48.2,88,29.91,10.0,Calm,Calm,-,N/A,,Overcast,0,2013-09-17 13:55:00
7:15 AM,51.8,48.2,88,29.91,10.0,North,5.8,-,N/A,,Scattered Clouds,350,2013-09-17 14:15:00
7:35 AM,51.8,48.2,88,29.90,10.0,Calm,Calm,-,N/A,,Clear,0,2013-09-17 14:35:00
7:55 AM,51.8,48.2,88,29.91,10.0,Calm,Calm,-,N/A,,Clear,0,2013-09-17 14:55:00
8:15 AM,53.6,48.2,82,29.91,10.0,Calm,Calm,-,N/A,,Clear,0,2013-09-17 15:15:00
8:35 AM,53.6,50.0,88,29.91,10.0,Calm,Calm,-,N/A,,Mostly Cloudy,0,2013-09-17 15:35:00
8:55 AM,55.4,50.0,82,29.91,10.0,Calm,Calm,-,N/A,,Overcast,0,2013-09-17 15:55:00
9:15 AM,55.4,51.8,88,29.92,10.0,Calm,Calm,-,N/A,,Overcast,0,2013-09-17 16:15:00
9:35 AM,55.4,50.0,82,29.92,10.0,WNW,3.5,-,N/A,,Overcast,300,2013-09-17 16:35:00
9:55 AM,57.2,50.0,77,29.92,10.0,Calm,Calm,-,N/A,,Overcast,0,2013-09-17 16:55:00
10:15 AM,57.2,50.0,77,29.92,10.0,NNW,3.5,-,N/A,,Overcast,340,2013-09-17 17:15:00
10:35 AM,57.2,50.0,77,29.92,10.0,NNE,3.5,-,N/A,,Overcast,20,2013-09-17 17:35:00
10:55 AM,59.0,51.8,77,29.92,10.0,North,5.8,-,N/A,,Mostly Cloudy,10,2013-09-17 17:55:00
11:15 AM,60.8,50.0,68,29.92,10.0,North,-9999.0,-,N/A,,Clear,0,2013-09-17 18:15:00
11:35 AM,60.8,51.8,72,29.92,10.0,North,3.5,-,N/A,,Clear,10,2013-09-17 18:35:00
11:55 AM,60.8,51.8,72,29.92,10.0,NNE,4.6,-,N/A,,Clear,30,2013-09-17 18:55:00
12:15 PM,62.6,51.8,68,29.92,10.0,Calm,Calm,-,N/A,,Clear,0,2013-09-17 19:15:00
12:35 PM,64.4,50.0,59,29.91,10.0,Calm,Calm,-,N/A,,Mostly Cloudy,0,2013-09-17 19:35:00
12:55 PM,64.4,50.0,59,29.92,10.0,NE,3.5,-,N/A,,Overcast,40,2013-09-17 19:55:00
1:15 PM,62.6,51.8,68,29.92,10.0,Calm,Calm,-,N/A,,Overcast,0,2013-09-17 20:15:00
1:35 PM,62.6,51.8,68,29.92,10.0,East,4.6,-,N/A,,Overcast,90,2013-09-17 20:35:00
1:55 PM,62.6,53.6,72,29.92,10.0,Calm,Calm,-,N/A,,Mostly Cloudy,0,2013-09-17 20:55:00
2:15 PM,60.8,51.8,72,29.92,10.0,Calm,Calm,-,0.02,,Mostly Cloudy,0,2013-09-17 21:15:00
2:35 PM,62.6,53.6,72,29.92,10.0,NE,3.5,-,0.02,,Mostly Cloudy,50,2013-09-17 21:35:00
2:55 PM,64.4,53.6,68,29.91,10.0,NW,3.5,-,0.02,,Mostly Cloudy,320,2013-09-17 21:55:00
3:15 PM,66.2,51.8,60,29.92,10.0,West,3.5,-,N/A,,Overcast,270,2013-09-17 22:15:00
3:35 PM,64.4,51.8,64,29.92,10.0,NNE,6.9,-,N/A,,Overcast,20,2013-09-17 22:35:00
3:55 PM,62.6,53.6,72,29.93,10.0,NNE,4.6,-,N/A,,Overcast,30,2013-09-17 22:55:00
4:15 PM,62.6,53.6,72,29.93,10.0,Calm,Calm,-,N/A,,Overcast,0,2013-09-17 23:15:00
4:35 PM,62.6,51.8,68,29.93,10.0,North,4.6,-,0.03,,Overcast,360,2013-09-17 23:35:00
4:55 PM,60.8,51.8,72,29.92,10.0,ENE,3.5,-,0.03,,Mostly Cloudy,70,2013-09-17 23:55:00
5:15 PM,64.4,51.8,64,29.93,10.0,Calm,Calm,-,N/A,,Scattered Clouds,0,2013-09-18 00:15:00
5:35 PM,64.4,50.0,59,29.93,10.0,WNW,9.2,19.6,N/A,,Scattered Clouds,290,2013-09-18 00:35:00
5:55 PM,64.4,50.0,59,29.94,10.0,West,4.6,-,N/A,,Partly Cloudy,280,2013-09-18 00:55:00
6:15 PM,64.4,50.0,59,29.94,10.0,WNW,3.5,-,N/A,,Partly Cloudy,290,2013-09-18 01:15:00
6:35 PM,62.6,50.0,63,29.95,10.0,West,4.6,-,N/A,,Partly Cloudy,270,2013-09-18 01:35:00
6:55 PM,62.6,50.0,63,29.95,10.0,West,4.6,-,N/A,,Mostly Cloudy,280,2013-09-18 01:55:00
7:15 PM,60.8,50.0,68,29.96,10.0,Calm,Calm,-,N/A,,Overcast,0,2013-09-18 02:15:00
7:35 PM,60.8,51.8,72,29.97,10.0,North,3.5,-,N/A,,Overcast,350,2013-09-18 02:35:00
7:55 PM,60.8,51.8,72,29.98,10.0,NNW,3.5,-,N/A,,Overcast,340,2013-09-18 02:55:00
8:15 PM,60.8,51.8,72,29.98,10.0,North,3.5,-,N/A,,Overcast,360,2013-09-18 03:15:00
8:35 PM,59.0,51.8,77,29.99,10.0,Calm,Calm,-,N/A,,Mostly Cloudy,0,2013-09-18 03:35:00
8:55 PM,59.0,51.8,77,30.00,10.0,Calm,Calm,-,N/A,,Overcast,0,2013-09-18 03:55:00
9:15 PM,57.2,51.8,82,30.00,10.0,Calm,Calm,-,N/A,,Overcast,0,2013-09-18 04:15:00
9:35 PM,57.2,51.8,82,30.00,10.0,Calm,Calm,-,N/A,,Overcast,0,2013-09-18 04:35:00
9:55 PM,57.2,51.8,82,30.01,10.0,Calm,Calm,-,N/A,,Overcast,0,2013-09-18 04:55:00
10:15 PM,57.2,51.8,82,30.01,10.0,Calm,Calm,-,N/A,,Overcast,0,2013-09-18 05:15:00
10:35 PM,57.2,51.8,82,30.02,10.0,Calm,Calm,-,N/A,,Overcast,0,2013-09-18 05:35:00
10:55 PM,57.2,51.8,82,30.02,10.0,Calm,Calm,-,N/A,,Mostly Cloudy,0,2013-09-18 05:55:00
11:15 PM,55.4,51.8,88,30.02,10.0,Calm,Calm,-,N/A,,Mostly Cloudy,0,2013-09-18 06:15:00
11:35 PM,55.4,51.8,88,30.02,10.0,Calm,Calm,-,N/A,,Overcast,0,2013-09-18 06:35:00
11:55 PM,55.4,51.8,88,30.03,10.0,Calm,Calm,-,N/A,,Mostly Cloudy,0,2013-09-18 06:55:00